TimeEDT,TemperatureF,Dew PointF,Humidity,Sea Level PressureIn,VisibilityMPH,Wind Direction,Wind SpeedMPH,Gust SpeedMPH,PrecipitationIn,Events,Conditions,WindDirDegrees,DateUTC
12:15 AM,40.3,32.9,75,29.90,10.0,WSW,4.6,-,N/A,,Clear,250,2013-05-12 04:15:00
12:35 AM,39.7,32.9,77,29.91,10.0,SW,4.6,-,N/A,,Clear,230,2013-05-12 04:35:00
12:54 AM,39.6,33.1,78,29.91,10.0,WSW,5.8,-,N/A,,Clear,240,2013-05-12 04:54:00
1:15 AM,39.4,33.3,79,29.91,10.0,WSW,4.6,-,N/A,,Clear,240,2013-05-12 05:15:00
1:34 AM,39.6,33.3,78,29.91,10.0,WSW,5.8,-,N/A,,Clear,240,2013-05-12 05:34:00
1:55 AM,39.6,33.4,79,29.90,10.0,WSW,5.8,-,N/A,,Clear,240,2013-05-12 05:55:00
2:15 AM,39.6,33.8,80,29.90,10.0,WSW,5.8,-,N/A,,Clear,250,2013-05-12 06:15:00
2:34 AM,39.2,33.8,81,29.90,10.0,WSW,8.1,-,N/A,,Clear,240,2013-05-12 06:34:00
2:55 AM,38.8,33.8,82,29.89,10.0,SW,6.9,-,N/A,,Clear,230,2013-05-12 06:55:00
3:15 AM,38.3,33.8,84,29.89,10.0,SW,8.1,-,N/A,,Clear,230,2013-05-12 07:15:00
3:34 AM,38.3,33.8,84,29.89,10.0,WSW,9.2,-,N/A,,Clear,240,2013-05-12 07:34:00
3:55 AM,38.3,33.4,83,29.88,10.0,WSW,9.2,-,N/A,,Clear,250,2013-05-12 07:55:00
4:15 AM,38.8,32.9,79,29.89,10.0,West,8.1,16.1,N/A,,Clear,260,2013-05-12 08:15:00
4:35 AM,39.2,31.8,75,29.88,10.0,West,10.4,19.6,N/A,,Clear,260,2013-05-12 08:35:00
4:55 AM,39.2,31.5,74,29.88,10.0,West,11.5,18.4,N/A,,Clear,260,2013-05-12 08:55:00
5:35 AM,38.5,31.8,77,29.88,10.0,WSW,9.2,-,N/A,,Clear,250,2013-05-12 09:35:00
5:54 AM,38.3,32.0,78,29.88,10.0,West,10.4,17.3,N/A,,Scattered Clouds,260,2013-05-12 09:54:00
6:15 AM,38.3,32.0,78,29.88,10.0,West,10.4,18.4,N/A,,Scattered Clouds,260,2013-05-12 10:15:00
6:34 AM,38.5,32.0,78,29.89,10.0,West,8.1,19.6,N/A,,Scattered Clouds,270,2013-05-12 10:34:00
6:55 AM,39.2,32.0,75,29.89,10.0,West,10.4,25.3,N/A,,Mostly Cloudy,270,2013-05-12 10:55:00
7:15 AM,39.2,32.0,75,29.90,10.0,West,17.3,25.3,N/A,,Overcast,270,2013-05-12 11:15:00
7:34 AM,39.6,30.7,71,29.90,10.0,WNW,13.8,23.0,N/A,,Overcast,290,2013-05-12 11:34:00
7:55 AM,39.9,30.4,69,29.91,10.0,WNW,18.4,24.2,N/A,,Overcast,300,2013-05-12 11:55:00
8:15 AM,40.3,30.6,68,29.91,10.0,West,15.0,20.7,N/A,,Overcast,270,2013-05-12 12:15:00
8:35 AM,40.5,30.2,67,29.91,10.0,West,15.0,21.9,N/A,,Mostly Cloudy,270,2013-05-12 12:35:00
8:55 AM,42.1,29.7,61,29.92,10.0,WNW,21.9,28.8,N/A,,Mostly Cloudy,290,2013-05-12 12:55:00
9:14 AM,42.4,29.3,60,29.92,10.0,West,11.5,27.6,N/A,,Mostly Cloudy,280,2013-05-12 13:14:00
9:35 AM,42.4,29.3,60,29.93,10.0,West,19.6,29.9,N/A,,Overcast,280,2013-05-12 13:35:00
9:55 AM,42.3,30.2,62,29.93,10.0,West,13.8,20.7,N/A,,Overcast,270,2013-05-12 13:55:00
10:15 AM,42.8,29.7,60,29.93,10.0,West,17.3,27.6,N/A,,Overcast,280,2013-05-12 14:15:00
10:35 AM,43.2,29.1,58,29.94,10.0,WNW,21.9,28.8,N/A,,Overcast,300,2013-05-12 14:35:00
10:55 AM,43.0,28.2,56,29.94,10.0,WNW,15.0,26.5,N/A,,Overcast,300,2013-05-12 14:55:00
11:15 AM,43.2,28.0,55,29.95,10.0,West,19.6,25.3,N/A,,Overcast,280,2013-05-12 15:15:00
11:35 AM,45.3,28.8,52,29.95,10.0,West,17.3,25.3,N/A,,Overcast,280,2013-05-12 15:35:00
11:54 AM,44.8,27.7,51,29.95,10.0,WNW,17.3,25.3,N/A,,Overcast,300,2013-05-12 15:54:00
12:15 PM,45.5,27.1,49,29.94,10.0,West,20.7,32.2,N/A,,Overcast,260,2013-05-12 16:15:00
12:35 PM,46.2,26.4,46,29.94,10.0,West,16.1,32.2,N/A,,Overcast,270,2013-05-12 16:35:00
12:55 PM,45.7,27.1,48,29.95,10.0,West,16.1,25.3,N/A,,Overcast,280,2013-05-12 16:55:00
1:15 PM,47.3,25.7,43,29.95,10.0,West,16.1,24.2,N/A,,Mostly Cloudy,280,2013-05-12 17:15:00
1:35 PM,48.0,27.0,44,29.95,10.0,West,13.8,26.5,N/A,,Overcast,280,2013-05-12 17:35:00
1:55 PM,48.6,25.5,41,29.95,10.0,West,18.4,28.8,N/A,,Overcast,270,2013-05-12 17:55:00
2:15 PM,48.6,25.7,41,29.96,10.0,West,16.1,27.6,N/A,,Overcast,280,2013-05-12 18:15:00
2:35 PM,49.3,27.0,42,29.96,10.0,West,18.4,26.5,N/A,,Mostly Cloudy,260,2013-05-12 18:35:00
2:55 PM,47.3,26.4,44,29.96,10.0,West,18.4,29.9,N/A,,Overcast,270,2013-05-12 18:55:00
3:15 PM,46.4,29.5,52,29.97,10.0,West,17.3,27.6,N/A,Rain,Light Rain,280,2013-05-12 19:15:00
3:34 PM,47.7,28.0,47,29.97,10.0,WNW,13.8,25.3,N/A,,Overcast,290,2013-05-12 19:34:00
3:55 PM,46.6,28.8,50,29.98,10.0,West,18.4,28.8,N/A,Rain,Light Rain,280,2013-05-12 19:55:00
4:14 PM,48.2,27.9,45,29.98,10.0,West,17.3,33.4,N/A,,Overcast,280,2013-05-12 20:14:00
4:35 PM,46.9,28.0,48,29.99,10.0,WNW,19.6,26.5,N/A,,Overcast,290,2013-05-12 20:35:00
4:55 PM,46.4,27.3,47,30.00,10.0,WNW,16.1,26.5,N/A,,Overcast,300,2013-05-12 20:55:00
5:14 PM,46.2,26.6,46,30.01,10.0,WNW,20.7,27.6,N/A,,Overcast,300,2013-05-12 21:14:00
5:35 PM,44.6,26.4,49,30.02,10.0,NW,20.7,31.1,N/A,,Overcast,310,2013-05-12 21:35:00
5:55 PM,44.6,25.7,48,30.02,10.0,WNW,18.4,25.3,N/A,,Overcast,290,2013-05-12 21:55:00
6:14 PM,43.7,25.5,49,30.03,10.0,WNW,16.1,29.9,N/A,,Overcast,290,2013-05-12 22:14:00
6:35 PM,43.5,24.1,46,30.04,10.0,West,16.1,29.9,N/A,,Overcast,280,2013-05-12 22:35:00
6:55 PM,43.0,24.1,47,30.04,10.0,West,12.7,26.5,N/A,,Overcast,280,2013-05-12 22:55:00
7:14 PM,42.8,25.7,51,30.05,10.0,WNW,13.8,21.9,N/A,,Overcast,300,2013-05-12 23:14:00
7:35 PM,42.8,25.0,49,30.05,10.0,WNW,17.3,24.2,N/A,,Overcast,300,2013-05-12 23:35:00
7:54 PM,42.6,25.2,50,30.06,10.0,WNW,15.0,18.4,N/A,,Overcast,300,2013-05-12 23:54:00
8:15 PM,42.3,24.6,50,30.07,10.0,WNW,15.0,19.6,N/A,,Overcast,300,2013-05-13 00:15:00
8:35 PM,41.9,23.0,47,30.07,10.0,NW,12.7,23.0,N/A,,Overcast,310,2013-05-13 00:35:00
8:54 PM,41.5,21.7,45,30.08,10.0,WNW,16.1,24.2,N/A,,Overcast,300,2013-05-13 00:54:00
9:15 PM,41.2,21.6,46,30.08,10.0,NW,13.8,19.6,N/A,,Overcast,310,2013-05-13 01:15:00
9:35 PM,41.0,22.1,47,30.09,10.0,NW,9.2,16.1,N/A,,Overcast,310,2013-05-13 01:35:00
9:55 PM,40.3,22.8,50,30.09,10.0,NW,8.1,-,N/A,,Mostly Cloudy,320,2013-05-13 01:55:00
10:15 PM,39.9,23.0,51,30.10,10.0,NW,10.4,-,N/A,,Scattered Clouds,320,2013-05-13 02:15:00
10:35 PM,39.4,23.5,53,30.10,10.0,NW,5.8,-,N/A,,Scattered Clouds,310,2013-05-13 02:35:00
10:55 PM,38.7,23.9,55,30.11,10.0,NW,6.9,-,N/A,,Clear,310,2013-05-13 02:55:00
11:15 PM,38.5,23.9,56,30.10,10.0,NW,5.8,-,N/A,,Clear,310,2013-05-13 03:15:00
11:34 PM,37.8,24.4,59,30.10,10.0,NW,4.6,-,N/A,,Clear,310,2013-05-13 03:34:00
11:55 PM,37.4,24.6,60,30.10,10.0,Calm,Calm,-,N/A,,Clear,0,2013-05-13 03:55:00